エンケ彗星

2P/Encke (2020)

English version
Home page
Updated on January 23, 2020

---------------------------------------------------------------------

・ プロフィール

・ 写真集

・ 軌道要素

Epoch 2020 July 10.0 TT = JDT 2459040.5
T 2020 June 25.84523 TT                                 MPCW
q   0.3367207            (2000.0)            P               Q
n   0.29893383     Peri.  186.56245     -0.94513361     -0.31471692
a   2.2152326      Node   334.55167     +0.30823227     -0.77022897
e   0.8479976      Incl.   11.76457     +0.10823739     -0.55470766
P   3.30
From 2077 observations 2009 Aug. 15-2019 Nov. 4, mean residual 0".5.
     Nongravitational parameters A1 = +0.01, A2 = -0.0001.

・ 星図

・ 光度変化

        H = 14.2  G = 0.15                [   ,-97]  (              〜2020年 3月20日)
        m1 =  9.8 + 5 logΔ + 25   log r  [-97,-45]  (2020年 3月20日〜2020年 5月11日)
        m1 = 10.3 + 5 logΔ +  7.0 log r  [-45, 20]  (2020年 5月11日〜2020年 7月15日)
        m1 = 12.3 + 5 logΔ + 15.7 log r  [ 20,115]  (2020年 7月15日〜2020年10月18日)
        H = 14.2  G = 0.15                [115,   ]  (2020年10月18日〜              )

---------------------------------------------------------------------

軌道要素はM.P.E.C. 2019-V116に掲載されたものです。
星図はステラナビゲータ Ver.10 (アストロアーツ) で作成したものです。
光度グラフはComet for Windowsで作成したものです。

---------------------------------------------------------------------

Copyright(C) Seiichi Yoshida (comet@aerith.net). All rights reserved.